Orbital Elements at Epoch 2459200.5 (2020-Dec-17.0) TDB
Reference: JPL 14 (heliocentric ecliptic J2000)
Element | Value | Uncertainty (1-sigma) | Units |
e | .1064760668718022 | 3.4019e-08 | |
a | 1.934775178390643 | 5.1235e-09 | au |
q | 1.728767927114418 | 6.6466e-08 | au |
i | 18.07111605761229 | 3.9944e-06 | deg |
node | 323.6088881454244 | 1.1062e-05 | deg |
peri | 78.80806546883986 | 2.8486e-05 | deg |
M | 11.10252180554772 | 2.2726e-05 | deg |
tp | 2459170.184598701005 (2020-Nov-16.68459870) | 6.2083e-05 | TDB |
period | 982.9788816253242 2.69 | 3.9045e-06 1.069e-08 | d yr |
n | .3662337072844856 | 1.4547e-09 | deg/d |
Q | 2.140782429666868 | 5.669e-09 | au |
|
| | Orbit Determination Parameters
Additional Information
|